Weather History for Cocoa Beach, FL

Change the Weather History Date:

Saturday, January 19, 2013

  Actual Average (KCOF) Record (KCOF)
Temperature  
Mean Temperature 68 °F -  
Max Temperature 73 °F 67 °F 82 °F (2008)
Min Temperature 64 °F 52 °F 37 °F (1997)
Cooling Degree Days 4    
Growing Degree Days 18 (Base 50)    
Moisture  
Dew Point 60 °F    
Average Humidity 76    
Maximum Humidity 88    
Minimum Humidity 66    
Precipitation  
Precipitation 0.02 in - - ()
Sea Level Pressure  
Sea Level Pressure 30.23 in    
Wind  
Wind Speed 10 mph (NE)    
Max Wind Speed 15 mph    
Max Gust Speed 23 mph    
Visibility 9 miles    
Events      
Averages and records for this station are not official NWS values.
T = Trace of Precipitation, MM = Missing Value Source: NWS Daily Summary

Daily Weather History Graph

Daily Weather History Graph

Search for Another Location

Airport:

Trip Planner

Search our weather history database for the weather conditions in past years. The results will help you decide how hot, cold, wet, or windy it might be!

Date:

Astronomy

Jan. 19, 2013 Rise Set
Actual Time 7:15 AM EST 5:51 PM EST
Civil Twilight 6:49 AM EST 6:16 PM EST
Nautical Twilight 6:21 AM EST 6:45 PM EST
Astronomical Twilight 5:52 AM EST 7:13 PM EST
Moon 12:11 PM EST (1/19) 12:55 AM EST (1/19)
Length of Visible Light 11h 26m
Length of Day
10h 36m
First Quarter, 57% of the Moon is Illuminated
Jan 19
First Quarter
Jan 26
Full
Feb 3
Last Quarter
Feb 10
New
Feb 17
First Quarter

Hourly Weather History & Observations

Time (EST) Temp. Dew Point Humidity Pressure Visibility Wind Dir Wind Speed Gust Speed Precip Events Conditions
12:55 AM 66.4 °F 54.7 °F 66% 30.25 in 10.0 mi ENE 12.7 mph 21.9 mph N/A   Overcast
1:55 AM 66.2 °F 55.9 °F 69% 30.23 in 10.0 mi ENE 11.5 mph 19.6 mph N/A   Mostly Cloudy
2:55 AM 66.7 °F 56.3 °F 69% 30.22 in 10.0 mi ENE 12.7 mph 19.6 mph N/A   Overcast
3:55 AM 66.9 °F 57.0 °F 70% 30.22 in 10.0 mi ENE 15.0 mph 23.0 mph N/A   Overcast
4:55 AM 67.3 °F 58.6 °F 74% 30.22 in 10.0 mi ENE 13.8 mph 21.9 mph N/A   Overcast
5:55 AM 66.6 °F 58.6 °F 76% 30.23 in 10.0 mi NE 10.4 mph - N/A   Mostly Cloudy
6:02 AM 66.2 °F 57.2 °F 73% 30.23 in 10.0 mi NE 9.2 mph - N/A   Overcast
6:04 AM 66.2 °F 57.2 °F 73% 30.22 in 10.0 mi Variable 6.9 mph - N/A   Overcast
6:06 AM 66.2 °F 59.0 °F 78% 30.22 in 10.0 mi NE 9.2 mph - N/A   Overcast
6:45 AM 68.0 °F 59.0 °F 73% 30.23 in 10.0 mi ENE 8.1 mph 20.7 mph N/A   Overcast
6:55 AM 67.6 °F 57.4 °F 70% 30.23 in 10.0 mi ENE 9.2 mph 16.1 mph N/A   Overcast
7:15 AM 68.0 °F 59.0 °F 73% 30.24 in 8.0 mi NE 8.1 mph 17.3 mph N/A   Light Drizzle
7:16 AM 68.0 °F 59.0 °F 73% 30.24 in 8.0 mi NE 8.1 mph 17.3 mph N/A   Light Drizzle
7:42 AM 64.4 °F 60.8 °F 88% 30.25 in 10.0 mi ENE 10.4 mph - N/A   Overcast
7:44 AM 64.4 °F 60.8 °F 88% 30.25 in 10.0 mi ENE 11.5 mph - N/A   Overcast
7:55 AM 65.7 °F 59.9 °F 82% 30.25 in 10.0 mi ENE 9.2 mph 17.3 mph 0.01 in   Mostly Cloudy
8:55 AM 68.0 °F 60.1 °F 76% 30.27 in 10.0 mi ENE 10.4 mph - N/A   Mostly Cloudy
9:31 AM 68.0 °F 60.8 °F 78% 30.29 in 10.0 mi ENE 11.5 mph 19.6 mph N/A   Light Drizzle
9:38 AM 68.0 °F 62.6 °F 83% 30.29 in 6.0 mi ENE 11.5 mph 19.6 mph N/A   Light Drizzle
9:44 AM 66.2 °F 62.6 °F 88% 30.28 in 4.0 mi NE 8.1 mph 19.6 mph N/A   Light Drizzle
9:52 AM 66.2 °F 60.8 °F 83% 30.28 in 10.0 mi NE 8.1 mph - N/A   Light Drizzle
9:55 AM 66.7 °F 61.2 °F 82% 30.29 in 10.0 mi ENE 8.1 mph - 0.01 in   Light Drizzle
9:58 AM 68.0 °F 60.8 °F 78% 30.29 in 10.0 mi NE 6.9 mph - N/A   Mostly Cloudy
10:55 AM 70.7 °F 62.6 °F 75% 30.28 in 10.0 mi NE 9.2 mph - 0.00 in   Mostly Cloudy
11:55 AM 69.6 °F 60.4 °F 73% 30.25 in 10.0 mi NE 8.1 mph 20.7 mph N/A   Mostly Cloudy
12:08 PM 69.8 °F 60.8 °F 73% 30.25 in 9.0 mi NE 8.1 mph 17.3 mph N/A   Overcast
12:11 PM 69.8 °F 60.8 °F 73% 30.25 in 7.0 mi NE 8.1 mph - N/A   Overcast
12:14 PM 69.8 °F 62.6 °F 78% 30.25 in 6.0 mi NE 9.2 mph - N/A   Haze
12:15 PM 69.8 °F 62.6 °F 78% 30.25 in 5.0 mi NE 9.2 mph - N/A   Light Drizzle
12:26 PM 69.8 °F 64.4 °F 83% 30.23 in 8.0 mi NE 4.6 mph - N/A   Overcast
12:42 PM 71.6 °F 62.6 °F 73% 30.22 in 10.0 mi ENE 9.2 mph 17.3 mph N/A   Mostly Cloudy
12:55 PM 72.5 °F 62.2 °F 70% 30.21 in 10.0 mi ENE 12.7 mph 19.6 mph 0.00 in   Mostly Cloudy
1:55 PM 73.0 °F 61.3 °F 67% 30.19 in 10.0 mi NE 11.5 mph 16.1 mph N/A   Partly Cloudy
2:55 PM 71.6 °F 61.3 °F 70% 30.17 in 10.0 mi NE 10.4 mph - N/A   Overcast
3:55 PM 70.3 °F 61.7 °F 74% 30.17 in 10.0 mi ENE 9.2 mph - N/A   Overcast
4:55 PM 69.4 °F 61.7 °F 76% 30.16 in 10.0 mi ENE 10.4 mph - N/A   Overcast
5:55 PM 69.1 °F 61.3 °F 76% 30.17 in 10.0 mi ENE 9.2 mph - N/A   Mostly Cloudy
6:55 PM 68.9 °F 61.9 °F 78% 30.18 in 10.0 mi NE 8.1 mph - N/A   Overcast
7:55 PM 69.3 °F 61.2 °F 75% 30.18 in 10.0 mi ENE 6.9 mph - N/A   Overcast
8:55 PM 69.4 °F 61.7 °F 76% 30.19 in 10.0 mi ENE 5.8 mph - N/A   Overcast
9:55 PM 69.4 °F 62.4 °F 78% 30.17 in 10.0 mi ENE 5.8 mph - N/A   Overcast
10:55 PM 69.3 °F 63.3 °F 81% 30.16 in 10.0 mi ENE 4.6 mph - N/A   Overcast
11:55 PM 69.3 °F 63.0 °F 80% 30.14 in 10.0 mi NE 5.8 mph - N/A   Overcast